Dewpoint
64 69 71 72 73 72 72 72 72 71 72 72 72 72 72 72 73 72 72 72 72 71 70 70 70 69 68 68 68 68 68 68 68 68 69 69 69 68 69 69 69 68 69
64 68 71 72 72 72 72 72 72 72 72 72 72 72 72 72 72 72 72 72 71 70 70 70 69 68 68 68 68 68 68 68 68 68 68 69 69 68 68 69 70 68 68
65 68 70 71 72 72 72 72 72 72 72 72 72 72 71 71 71 72 72 72 71 70 70 70 69 69 68 68 68 68 68 67 67 68 67 66 68 68 68 69 70 69 68
65 67 69 71 71 72 72 72 72 72 72 72 72 72 72 71 71 71 71 71 71 70 70 70 69 68 68 67 68 68 68 67 67 67 63 66 67 69 69 69 68 68 68
65 67 68 70 71 71 72 72 72 72 71 71 72 72 72 71 71 71 71 71 71 71 71 70 68 68 68 68 68 67 66 66 68 66 67 68 68 69 69 68 68 68 68
66 67 69 69 70 71 71 72 72 71 71 71 71 72 71 71 70 70 70 70 71 71 70 70 69 68 68 67 67 65 64 64 67 67 67 68 67 69 68 68 69 68 69
69 69 69 68 70 71 71 71 71 70 70 70 71 71 71 71 70 70 70 71 71 71 70 70 69 68 66 65 65 63 62 64 64 65 66 67 68 69 70 69 68 68 68
68 68 69 70 70 70 71 70 70 69 69 69 70 71 71 71 70 69 69 70 70 69 68 68 66 65 64 63 62 61 63 64 62 63 65 67 69 69 69 69 69 68 68
68 68 68 69 70 69 69 69 68 68 68 69 70 70 69 69 68 68 68 68 67 67 66 65 64 64 62 61 59 59 61 62 59 62 64 67 69 68 68 69 68 69 68
67 68 68 68 68 68 68 68 68 68 67 68 68 68 67 67 67 67 66 66 65 65 64 63 62 60 58 59 59 62 62 62 62 64 65 67 68 67 67 67 67 67 68
66 67 67 67 67 66 66 68 68 68 67 67 67 66 65 64 64 64 63 64 63 63 62 60 59 56 54 57 60 61 61 60 61 62 63 65 66 66 66 66 67 67 66
64 64 66 65 65 65 67 66 67 67 66 65 64 63 62 61 61 60 62 63 62 61 59 58 55 53 51 49 59 59 57 57 58 59 61 63 63 63 65 66 66 67 68
64 65 65 65 64 65 65 65 66 65 64 63 62 61 60 60 60 59 58 59 57 58 53 50 49 47 49 50 53 55 55 55 55 56 59 61 62 61 63 65 65 66 66
64 64 65 65 64 64 64 64 64 64 63 63 62 60 58 58 57 56 55 54 52 51 47 46 46 45 47 52 53 52 53 54 53 54 57 60 60 59 63 64 64 64 63
63 64 65 65 64 64 63 63 63 63 63 61 59 59 57 56 56 54 52 50 48 50 48 46 45 44 47 52 50 51 52 52 52 53 54 58 60 63 63 62 62 62 62
64 64 65 65 64 63 62 62 62 62 61 59 59 58 56 55 56 51 48 49 49 49 47 45 44 44 47 50 49 49 50 51 50 50 52 54 59 60 62 61 60 59 57
64 64 65 65 64 62 62 61 61 61 60 59 57 56 56 54 54 51 49 50 49 46 44 43 44 46 49 50 49 49 49 48 48 48 49 50 53 57 58 57 57 57 56
63 63 64 65 64 63 61 61 60 60 59 58 56 56 55 54 52 50 49 48 46 44 43 43 44 47 48 50 49 48 48 46 46 47 47 47 48 49 53 54 53 52 51
63 62 63 65 64 63 61 60 60 58 57 57 55 55 54 54 52 49 47 45 44 44 43 43 43 47 47 48 48 48 47 46 45 45 45 47 48 48 48 50 49 49 49
62 62 63 63 64 64 61 59 57 55 56 55 55 54 53 53 51 47 45 43 44 44 43 43 43 44 47 46 46 44 43 44 43 43 44 46 47 47 46 45 45 44 46
61 62 62 63 64 63 61 58 56 55 55 53 54 53 52 52 50 46 45 43 44 44 43 42 42 44 45 46 43 42 41 39 39 40 43 45 46 45 44 42 39 37 38
50 58 62 62 63 63 61 59 58 56 53 53 52 52 51 50 48 46 44 44 44 44 43 41 41 43 42 45 41 41 37 37 37 37 39 42 43 44 42 38 36 35 35
55 56 57 62 63 62 62 58 51 50 49 50 50 51 49 48 47 45 44 44 44 44 44 42 41 41 43 44 43 42 39 35 35 36 35 37 38 42 39 37 34 33 33
52 55 56 58 62 62 61 57 52 52 51 50 51 51 48 47 46 46 44 44 44 44 44 43 42 40 43 43 41 37 40 38 34 32 34 33 35 39 39 34 32 32 32
49 53 56 56 61 61 61 58 53 52 52 50 51 50 48 47 47 45 45 44 44 44 43 42 41 40 39 42 40 35 34 36 35 33 31 31 33 33 34 33 33 30 29
48 49 53 56 55 56 57 55 53 53 50 50 50 49 48 47 46 45 45 44 43 42 40 39 38 39 38 38 37 36 34 35 34 32 32 30 31 31 30 30 30 29 30
Lifted_Index
-2 -3 -4 -5 -5 -5 -5 -5 -5 -5 -5 -5 -5 -4 -4 -4 -5 -5 -4 -4 -4 -4 -3 -3 -3 -2 -2 -2 -2 -2 -1 -1 -1 -2 -2 -3 -3 -2 -2 -2 -2 -2 -2
-2 -3 -4 -5 -5 -5 -5 -5 -5 -5 -5 -5 -5 -4 -4 -4 -5 -5 -5 -4 -4 -4 -3 -3 -3 -2 -2 -2 -2 -2 -1 -1 -1 -1 -2 -3 -3 -2 -2 -2 -2 -2 -2
-2 -3 -4 -4 -5 -5 -5 -5 -5 -6 -6 -5 -5 -5 -4 -4 -4 -4 -4 -4 -4 -4 -4 -3 -3 -2 -2 -2 -2 -2 -1 -1 -1 -1 -1 -2 -3 -2 -2 -2 -2 -2 -2
-2 -3 -3 -4 -5 -5 -5 -5 -6 -6 -6 -6 -5 -5 -5 -5 -5 -4 -4 -4 -4 -4 -4 -4 -3 -2 -2 -2 -2 -1 -1 -1 -1 -1 -2 -3 -3 -3 -3 -2 -2 -2 -1
-2 -2 -3 -4 -4 -5 -5 -5 -6 -6 -6 -6 -6 -6 -5 -5 -5 -4 -4 -4 -5 -5 -5 -4 -3 -2 -2 -1 -1 -1 -1 -1 -2 -2 -3 -3 -3 -3 -3 -2 -2 -1 -1
-3 -3 -3 -3 -4 -4 -5 -5 -6 -6 -6 -6 -6 -6 -5 -5 -4 -4 -4 -4 -5 -5 -5 -4 -3 -2 -2 -1 -1 -0 -0 -1 -3 -3 -3 -3 -3 -3 -3 -3 -2 -1 -1
-3 -3 -3 -3 -4 -4 -5 -5 -5 -5 -5 -5 -5 -5 -5 -5 -4 -4 -4 -4 -5 -5 -4 -4 -3 -2 -1 -0 -0 0 0 -1 -3 -3 -3 -3 -3 -4 -4 -3 -2 -2 -1
-4 -3 -3 -3 -4 -4 -5 -5 -5 -5 -5 -5 -5 -5 -5 -4 -3 -3 -3 -3 -3 -3 -3 -2 -1 -1 -0 0 1 1 -0 -1 -2 -3 -3 -3 -4 -4 -4 -3 -3 -2 -1
-4 -3 -3 -3 -4 -4 -4 -4 -4 -4 -4 -5 -5 -5 -4 -3 -3 -2 -2 -2 -2 -2 -1 -1 0 0 1 1 1 1 0 -1 -2 -2 -3 -3 -3 -3 -3 -3 -3 -2 -2
-4 -4 -3 -3 -3 -4 -4 -4 -4 -4 -5 -5 -5 -4 -4 -3 -2 -1 -1 -0 0 1 1 1 2 2 3 2 2 1 1 0 -1 -2 -2 -2 -3 -3 -3 -2 -2 -2 -2
-4 -3 -3 -3 -3 -3 -4 -4 -4 -4 -4 -4 -4 -4 -3 -2 -1 -0 0 1 2 2 3 4 5 6 6 5 4 2 2 1 -0 -1 -1 -1 -1 -2 -2 -2 -2 -2 -1
-4 -3 -3 -3 -3 -3 -3 -4 -4 -4 -4 -4 -4 -3 -3 -2 -1 0 1 2 3 4 6 7 8 9 9 7 5 4 3 2 2 2 1 1 0 -0 -1 -1 -1 -1 -1
-4 -4 -4 -3 -3 -3 -3 -3 -3 -4 -4 -4 -4 -3 -2 -1 0 1 3 4 5 7 8 9 10 10 9 8 6 5 5 5 5 4 4 3 2 2 1 -0 -0 -0 -0
-4 -4 -4 -4 -4 -3 -3 -3 -3 -3 -3 -3 -3 -3 -2 -0 1 3 4 6 8 9 10 10 10 9 9 8 7 7 7 7 7 7 6 5 4 3 1 1 1 2 2
-4 -4 -4 -4 -4 -3 -3 -3 -3 -3 -3 -3 -2 -2 -1 1 2 4 6 8 9 10 10 9 9 9 9 8 8 8 8 8 9 8 7 6 5 3 2 2 3 4 4
-3 -3 -3 -3 -3 -3 -3 -3 -3 -3 -3 -2 -2 -1 0 1 3 4 7 9 9 9 9 9 9 9 9 8 8 8 8 8 9 9 8 7 6 5 4 4 5 6 6
-2 -2 -2 -2 -3 -3 -3 -3 -3 -3 -2 -2 -1 -0 1 2 3 4 6 8 8 8 9 9 10 10 9 8 8 8 8 8 9 9 9 8 7 6 6 6 7 8 8
-2 -2 -2 -2 -2 -3 -3 -3 -3 -3 -2 -2 -1 0 1 2 3 4 5 6 7 8 9 10 10 9 8 8 8 8 8 8 9 10 10 9 8 8 8 8 9 10 10
-2 -2 -2 -2 -3 -3 -3 -3 -3 -3 -2 -2 -1 0 2 3 4 4 5 6 7 8 9 10 10 9 8 8 8 8 8 9 9 10 11 11 10 10 10 10 11 12 12
-2 -2 -2 -3 -3 -3 -3 -3 -3 -3 -3 -2 -1 0 2 4 5 5 6 6 7 8 9 10 10 9 8 8 8 8 9 9 10 11 11 12 12 12 12 13 14 14 14
-1 -1 -2 -2 -3 -3 -3 -3 -3 -3 -3 -2 -1 1 3 4 5 6 6 7 7 8 9 10 10 9 8 8 8 9 9 10 10 11 12 12 12 13 14 14 15 15 15
1 -0 -1 -2 -3 -3 -3 -3 -3 -3 -3 -2 -1 0 3 5 5 6 6 7 7 8 9 10 10 9 8 8 8 9 9 9 10 10 11 12 12 13 14 14 15 16 16
3 2 0 -1 -2 -3 -3 -3 -2 -2 -2 -2 -2 -0 2 4 5 6 6 7 7 8 9 9 9 9 8 7 8 8 9 9 9 10 10 11 12 12 13 14 15 16 16
4 2 1 -1 -2 -3 -3 -2 -2 -2 -2 -2 -2 -1 1 4 5 6 6 7 8 8 9 9 9 8 8 7 7 8 8 8 8 8 9 10 11 12 13 14 15 16 16
5 3 1 -1 -2 -2 -2 -2 -2 -2 -2 -2 -2 -2 0 3 5 5 6 6 7 8 9 9 8 8 8 7 7 7 7 7 7 8 8 9 10 12 13 14 15 16 16
5 5 3 0 -2 -2 -2 -2 -2 -2 -2 -2 -2 -2 -0 2 4 5 5 6 7 8 9 8 8 8 8 7 7 7 7 7 7 7 7 8 9 11 13 15 15 16 16